• In Latvia
  • List of Countries
  • For 7 days
  • Water Temperature
  • Satellite Maps
  • Weather Map
  • Weather Widgets
  • user-avatar
    Login

    Hourly Weather Zhlobin

    Today, 14 November, Wednesday

    Time Temperature Precipitation Wind Pressure Humidity
    00:00 -4°C° 0 mm 6 mps 759 mmHg 56%
    01:00 -4°C° 0 mm 6 mps 758 mmHg 56%
    02:00 -4°C° 0 mm 6 mps 758 mmHg 57%
    03:00 -4°C° 0 mm 6 mps 757 mmHg 57%
    04:00 -4°C° 0 mm 6 mps 756 mmHg 57%
    05:00 -4°C° 0 mm 6 mps 755 mmHg 57%
    06:00 -4°C° 0.5 mm 6 mps 755 mmHg 64%
    07:00 -4°C° 0.5 mm 6 mps 755 mmHg 70%
    08:00 -5°C° 0.5 mm 6 mps 755 mmHg 77%
    09:00 -5°C° 1.2 mm 6 mps 754 mmHg 82%
    10:00 -5°C° 1.2 mm 5 mps 754 mmHg 87%
    11:00 -5°C° 1.2 mm 5 mps 753 mmHg 93%
    12:00 -4°C° 0.5 mm 5 mps 753 mmHg 93%
    13:00 -4°C° 0.5 mm 5 mps 753 mmHg 93%
    14:00 -2°C° 0.5 mm 4 mps 753 mmHg 93%
    15:00 -2°C° 0.2 mm 4 mps 753 mmHg 94%
    16:00 -2°C° 0.2 mm 4 mps 753 mmHg 95%
    17:00 -2°C° 0.2 mm 4 mps 753 mmHg 95%
    18:00 0°C° 0.1 mm 3 mps 753 mmHg 96%
    19:00 0°C° 0.1 mm 3 mps 753 mmHg 96%
    20:00 0°C° 0.1 mm 3 mps 753 mmHg 97%
    21:00 0°C° 0.1 mm 3 mps 753 mmHg 97%
    22:00 0°C° 0.1 mm 3 mps 753 mmHg 97%
    23:00 0°C° 0.1 mm 3 mps 754 mmHg 97%

    Tomorrow, 15 November, Thursday

    Time Temperature Precipitation Wind Pressure Humidity
    00:00 0°C° 0.1 mm 3 mps 754 mmHg 96%
    01:00 0°C° 0.1 mm 3 mps 755 mmHg 96%
    02:00 0°C° 0.1 mm 3 mps 755 mmHg 96%
    03:00 -1°C° 0.1 mm 3 mps 756 mmHg 96%
    04:00 -1°C° 0.1 mm 3 mps 756 mmHg 96%
    05:00 -1°C° 0.1 mm 3 mps 756 mmHg 96%
    06:00 -1°C° 0.1 mm 2 mps 757 mmHg 96%
    07:00 -1°C° 0.1 mm 2 mps 758 mmHg 96%
    08:00 -1°C° 0.1 mm 2 mps 758 mmHg 95%
    09:00 +1°C° 0 mm 2 mps 759 mmHg 95%
    10:00 +1°C° 0 mm 2 mps 759 mmHg 96%
    11:00 +1°C° 0 mm 2 mps 760 mmHg 96%
    12:00 +2°C° 0 mm 2 mps 760 mmHg 96%
    13:00 +3°C° 0 mm 1 mps 761 mmHg 96%
    14:00 +3°C° 0 mm 1 mps 761 mmHg 96%
    15:00 +3°C° 0 mm 1 mps 761 mmHg 97%
    16:00 +2°C° 0 mm 1 mps 762 mmHg 97%
    17:00 +2°C° 0 mm 1 mps 762 mmHg 97%
    18:00 +2°C° 0 mm 1 mps 763 mmHg 97%
    19:00 +2°C° 0 mm 1 mps 763 mmHg 97%
    20:00 +2°C° 0 mm 1 mps 763 mmHg 97%
    21:00 +2°C° 0 mm 1 mps 764 mmHg 97%
    22:00 +2°C° 0 mm 1 mps 764 mmHg 97%
    23:00 +2°C° 0 mm 1 mps 764 mmHg 97%

    Day after tomorrow, 16 November, Friday

    Time Temperature Precipitation Wind Pressure Humidity
    00:00 +1°C° 0 mm 1 mps 764 mmHg 96%
    01:00 +1°C° 0 mm 1 mps 765 mmHg 96%
    02:00 +1°C° 0 mm 1 mps 765 mmHg 95%
    03:00 0°C° 0 mm 1 mps 765 mmHg 95%
    04:00 0°C° 0 mm 1 mps 765 mmHg 94%
    05:00 -2°C° 0 mm 2 mps 766 mmHg 94%
    06:00 -3°C° 0 mm 2 mps 766 mmHg 93%
    07:00 -3°C° 0 mm 2 mps 766 mmHg 92%
    08:00 -3°C° 0 mm 2 mps 767 mmHg 91%
    09:00 -2°C° 0 mm 2 mps 767 mmHg 87%
    10:00 -1°C° 0 mm 2 mps 767 mmHg 84%
    11:00 +1°C° 0 mm 2 mps 767 mmHg 80%
    12:00 +1°C° 0 mm 2 mps 767 mmHg 80%
    13:00 +1°C° 0 mm 2 mps 767 mmHg 80%
    14:00 +1°C° 0 mm 2 mps 767 mmHg 80%
    15:00 -1°C° 0 mm 2 mps 768 mmHg 83%
    16:00 -2°C° 0 mm 2 mps 768 mmHg 86%
    17:00 -3°C° 0 mm 2 mps 768 mmHg 89%
    18:00 -3°C° 0 mm 2 mps 768 mmHg 88%
    19:00 -3°C° 0 mm 2 mps 768 mmHg 88%
    20:00 -4°C° 0 mm 2 mps 768 mmHg 87%
    21:00 -4°C° 0 mm 2 mps 768 mmHg 86%
    22:00 -4°C° 0 mm 2 mps 768 mmHg 84%
    23:00 -2°C° 0 mm 1 mps 768 mmHg 82%

    17 November, Saturday

    Time Temperature Precipitation Wind Pressure Humidity
    00:00 -2°C° 0 mm 1 mps 768 mmHg 81%
    01:00 -2°C° 0 mm 1 mps 768 mmHg 80%
    02:00 -2°C° 0 mm 1 mps 768 mmHg 79%
    03:00 -2°C° 0 mm 1 mps 768 mmHg 78%
    04:00 -3°C° 0 mm 1 mps 768 mmHg 77%
    05:00 -3°C° 0 mm 1 mps 768 mmHg 77%
    06:00 -2°C° 0 mm 1 mps 767 mmHg 76%
    07:00 -2°C° 0 mm 1 mps 767 mmHg 76%
    08:00 -2°C° 0 mm 1 mps 767 mmHg 76%
    09:00 -1°C° 0 mm 1 mps 767 mmHg 72%
    10:00 0°C° 0 mm 1 mps 767 mmHg 68%
    11:00 +1°C° 0 mm 1 mps 767 mmHg 64%
    12:00 +2°C° 0 mm 1 mps 766 mmHg 66%
    13:00 +2°C° 0 mm 1 mps 766 mmHg 68%
    14:00 +2°C° 0 mm 1 mps 765 mmHg 70%
    15:00 +2°C° 0 mm 1 mps 765 mmHg 75%
    16:00 -1°C° 0 mm 2 mps 764 mmHg 79%
    17:00 -2°C° 0 mm 2 mps 764 mmHg 83%
    18:00 -2°C° 0 mm 2 mps 763 mmHg 84%
    19:00 -1°C° 0 mm 2 mps 763 mmHg 85%
    20:00 -1°C° 0 mm 2 mps 762 mmHg 86%
    21:00 -1°C° 0 mm 3 mps 762 mmHg 87%
    22:00 -1°C° 0 mm 3 mps 761 mmHg 88%
    23:00 0°C° 0 mm 3 mps 760 mmHg 89%

    18 November, Sunday

    Time Temperature Precipitation Wind Pressure Humidity
    00:00 -1°C° 0 mm 4 mps 759 mmHg 90%
    01:00 -1°C° 0 mm 4 mps 758 mmHg 91%
    02:00 -1°C° 0 mm 4 mps 758 mmHg 93%
    03:00 -1°C° 0.2 mm 4 mps 757 mmHg 93%
    04:00 -1°C° 0.2 mm 4 mps 756 mmHg 94%
    05:00 0°C° 0.2 mm 4 mps 755 mmHg 94%
    06:00 0°C° 0.1 mm 4 mps 754 mmHg 95%
    07:00 0°C° 0.1 mm 4 mps 754 mmHg 95%
    08:00 0°C° 0.1 mm 4 mps 753 mmHg 96%
    09:00 0°C° 0.1 mm 4 mps 753 mmHg 94%
    10:00 0°C° 0.1 mm 4 mps 752 mmHg 93%
    11:00 0°C° 0.1 mm 4 mps 752 mmHg 91%
    12:00 +1°C° 0.1 mm 4 mps 752 mmHg 91%
    13:00 +2°C° 0.1 mm 3 mps 751 mmHg 91%
    14:00 +2°C° 0.1 mm 3 mps 751 mmHg 90%
    15:00 +1°C° 0.1 mm 3 mps 751 mmHg 92%
    16:00 +1°C° 0.1 mm 3 mps 751 mmHg 94%
    17:00 +2°C° 0.1 mm 2 mps 750 mmHg 95%
    18:00 +2°C° 0.3 mm 2 mps 750 mmHg 96%
    19:00 +1°C° 0.3 mm 2 mps 750 mmHg 96%
    20:00 +1°C° 0.3 mm 2 mps 750 mmHg 97%
    21:00 +1°C° 0.3 mm 2 mps 750 mmHg 97%
    22:00 +1°C° 0.3 mm 2 mps 750 mmHg 97%
    23:00 +1°C° 0.3 mm 2 mps 750 mmHg 97%

    19 November, Monday

    Time Temperature Precipitation Wind Pressure Humidity
    00:00 +1°C° 0.2 mm 2 mps 750 mmHg 97%
    01:00 +1°C° 0.2 mm 2 mps 750 mmHg 97%
    02:00 -1°C° 0.2 mm 2 mps 750 mmHg 97%
    03:00 -1°C° 0.2 mm 3 mps 750 mmHg 96%
    04:00 -1°C° 0.2 mm 3 mps 750 mmHg 96%
    05:00 -1°C° 0.2 mm 3 mps 750 mmHg 95%
    06:00 -1°C° 0.1 mm 3 mps 751 mmHg 95%
    07:00 -2°C° 0.1 mm 4 mps 751 mmHg 94%
    08:00 -1°C° 0.1 mm 4 mps 752 mmHg 93%
    09:00 -1°C° 0.1 mm 4 mps 752 mmHg 92%
    10:00 -1°C° 0.1 mm 4 mps 753 mmHg 92%
    11:00 -1°C° 0.1 mm 5 mps 754 mmHg 91%
    12:00 -1°C° 0.1 mm 5 mps 754 mmHg 90%
    13:00 -1°C° 0.1 mm 5 mps 755 mmHg 89%
    14:00 -1°C° 0.1 mm 5 mps 755 mmHg 88%
    15:00 -2°C° 0.1 mm 5 mps 756 mmHg 86%
    16:00 -2°C° 0.1 mm 5 mps 756 mmHg 84%
    17:00 -4°C° 0.1 mm 5 mps 757 mmHg 82%
    18:00 -4°C° 0 mm 5 mps 757 mmHg 83%
    19:00 -4°C° 0 mm 5 mps 758 mmHg 83%
    20:00 -5°C° 0 mm 5 mps 758 mmHg 84%
    21:00 -5°C° 0 mm 5 mps 759 mmHg 84%
    22:00 -5°C° 0 mm 5 mps 759 mmHg 83%
    23:00 -4°C° 0 mm 4 mps 760 mmHg 83%
    Show more